This is the latest recevied weather packets stored in our database for station/object CE3UOB-10. If no packets are shown the sender has not sent any weather packets the latest 10 day(s).
| Time | Temp. | Humidity | Pressure | Rain* | Wind** | Luminosity | Snow |
|---|---|---|---|---|---|---|---|
| 1777737910 | 15.56° C | 71% | 994.2 hPa | - | - | - | - |
| 1777737905 | 15.56° C | 71% | 994.2 hPa | - | - | - | - |
| 1777736109 | 15° C | 67% | 994.7 hPa | - | - | - | - |
| 1777736105 | 15° C | 67% | 994.7 hPa | - | - | - | - |
| 1777734309 | 12.78° C | 79% | 994.7 hPa | - | - | - | - |
| 1777734305 | 12.78° C | 79% | 994.7 hPa | - | - | - | - |
| 1777732560 | 12.22° C | 88% | 995.6 hPa | - | - | - | - |
| 1777732509 | 12.22° C | 88% | 995.6 hPa | - | - | - | - |
| 1777732505 | 12.22° C | 88% | 995.6 hPa | - | - | - | - |
| 1777730719 | 10° C | 86% | 996.1 hPa | - | - | - | - |
| 1777730704 | 10° C | 86% | 996.1 hPa | - | - | - | - |
| 1777728914 | 8.33° C | 86% | 995.8 hPa | - | - | - | - |
| 1777728904 | 8.33° C | 86% | 995.8 hPa | - | - | - | - |
| 1777728281 | 7.78° C | 93% | 996.4 hPa | - | - | - | - |
| 1777721169 | 6.11° C | 91% | 996.7 hPa | - | - | - | - |
| 1777721088 | 6.11° C | 91% | 996.7 hPa | - | - | - | - |
| 1777719288 | 6.67° C | 88% | 996.5 hPa | - | - | - | - |
| 1777711258 | 7.22° C | 88% | 996.5 hPa | - | - | - | - |
| 1777709038 | 7.78° C | 89% | 997.2 hPa | - | - | - | - |
| 1777704837 | 7.78° C | 87% | 997.6 hPa | - | - | - | - |
| 1777703411 | 7.78° C | 90% | 997.9 hPa | - | - | - | - |
| 1777703023 | 7.78° C | 90% | 997.9 hPa | - | - | - | - |
| 1777703018 | 7.78° C | 90% | 997.9 hPa | - | - | - | - |
| 1777701222 | 7.78° C | 88% | 998.2 hPa | - | - | - | - |
| 1777701222 | 7.78° C | 88% | 998.2 hPa | - | - | - | - |
* Rain since midnight (hover to see other rain measurements)
** Current wind speed in m/s (hover to see current wind gust speed)